Regional Weather Roundup
Issued by NWS

Home | Current Version | Previous Version | Text Only | Print | Product List | Glossary On
Versions: 1 2 3 4 5 6 7 8 9 10 11 12 13 14 15 16 17 18 19 20 21 22 23 24 25 26 27
000
ASUS44 KBMX 210610
RWRAL

ALABAMA REGIONAL WEATHER ROUNDUP
NATIONAL WEATHER SERVICE BIRMINGHAM AL
1200 AM CST SUN JAN 21 2018

NOTE: "FAIR" INDICATES FEW OR NO CLOUDS BELOW 12,000 FEET
WITH NO SIGNIFICANT WEATHER AND/OR OBSTRUCTIONS TO VISIBILITY.

THE REMARK "TC" DENOTES TEMPERATURE IN DEGREES CELSIUS.

ALZ001>011-014-016>018-020-210700-
NORTH ALABAMA

CITY           SKY/WX    TMP DP  RH WIND       PRES   REMARKS
MUSCLE SHOALS  CLOUDY    52  36  54 S5        30.19S
6HR MIN TEMP:  50; 6HR MAX TEMP:  58;

HUNTSVILLE     FAIR      46  38  73 E5        30.20F
6HR MIN TEMP:  43; 6HR MAX TEMP:  54;

DECATUR        FAIR      41  36  82 E3        30.20F
6HR MIN TEMP:  40; 6HR MAX TEMP:  51;

HALEYVILLE     FAIR      47  38  71 S5        30.22
6HR MIN TEMP:  46; 6HR MAX TEMP:  55;

GADSDEN        NOT AVBL
$$

ALZ012-013-022-023-030>036-040>044-210700-
WEST CENTRAL ALABAMA

CITY           SKY/WX    TMP DP  RH WIND       PRES   REMARKS
TUSCALOOSA     FAIR      42  38  85 CALM      30.22S
6HR MIN TEMP:  41; 6HR MAX TEMP:  60;

DEMOPOLIS        N/A     41  37  84 CALM      30.22S
6HR MIN TEMP:  40; 6HR MAX TEMP:  54;

$$

ALZ015-024>026-033>036-041>044-210700-
CENTRAL ALABAMA

CITY           SKY/WX    TMP DP  RH WIND       PRES   REMARKS
BIRMINGHAM     FAIR      50  37  61 SE3       30.24F
6HR MIN TEMP:  46; 6HR MAX TEMP:  55;

MONTGOMERY     FAIR      41  34  76 E3        30.25F
6HR MIN TEMP:  39; 6HR MAX TEMP:  54;

SHELBY CO ARPT FAIR      41  36  82 CALM      30.23F
6HR MIN TEMP:  40; 6HR MAX TEMP:  55;

MAXWELL AFB    FAIR      44  43  94 CALM      30.23F
6HR MIN TEMP:  44; 6HR MAX TEMP:  58;

GREENVILLE     FAIR      41  35  79 CALM      30.23F
6HR MIN TEMP:  40; 6HR MAX TEMP:  57;

SELMA          FAIR      41  37  87 CALM      30.23S
PRATTVILLE     FAIR      37  36  96 CALM      30.24F
6HR MIN TEMP:  37; 6HR MAX TEMP:  49;

BESSEMER       FAIR      49  37  63 S6        30.22F
6HR MIN TEMP:  49; 6HR MAX TEMP:  57;

TALLADEGA      FAIR      35  33  89 CALM      30.25S
6HR MIN TEMP:  35; 6HR MAX TEMP:  51;

PELL CITY      CLEAR     34  34 100 CALM      30.24F
MARION         FAIR      39  37  93 E6        30.21F WCI  35
6HR MIN TEMP:  39; 6HR MAX TEMP:  56;

SYLACAUGA      FAIR      37  37  99 CALM      30.24S
6HR MIN TEMP:  36; 6HR MAX TEMP:  51;

$$

ALZ019-021-028-029-037-038-045>048-210700-
EAST CENTRAL ALABAMA

CITY           SKY/WX    TMP DP  RH WIND       PRES   REMARKS
ANNISTON       FAIR      36  33  89 NE3       30.24F
6HR MIN TEMP:  35; 6HR MAX TEMP:  48;

ALEXANDER CITY FAIR      35  35 100 CALM      30.24F
6HR MIN TEMP:  35; 6HR MAX TEMP:  49;

AUBURN         FAIR      46  37  71 S3        30.25F
6HR MIN TEMP:  42; 6HR MAX TEMP:  54;

$$

ALZ051>064-210700-
SOUTHWEST ALABAMA

CITY           SKY/WX    TMP DP  RH WIND       PRES   REMARKS
MOBILE         FAIR      50  46  86 S3        30.22F
6HR MIN TEMP:  48; 6HR MAX TEMP:  56;

BROOKLEY FIELD FAIR      44  43  96 CALM      30.23F
6HR MIN TEMP:  43; 6HR MAX TEMP:  58;

EVERGREEN      FAIR      38  36  92 CALM      30.24F
6HR MIN TEMP:  38; 6HR MAX TEMP:  55;

$$

ALZ049-050-065>069-210700-
SOUTHEAST ALABAMA

CITY           SKY/WX    TMP DP  RH WIND       PRES   REMARKS
DOTHAN         FAIR      45  40  82 CALM      30.29F
6HR MIN TEMP:  45; 6HR MAX TEMP:  56;

OZARK          FAIR      48  41  76 CALM      30.26S
6HR MIN TEMP:  46; 6HR MAX TEMP:  58;

TROY           FAIR      41  39  93 CALM      30.25F
6HR MIN TEMP:  39; 6HR MAX TEMP:  51;

EUFAULA        FAIR      43  40  89 CALM      30.25F
6HR MIN TEMP:  43; 6HR MAX TEMP:  50;

$$




USA.gov is the U.S. government's official web portal to all federal, state and local government web resources and services.